Date,TemperatureHighF,TemperatureAvgF,TemperatureLowF,DewpointHighF,DewpointAvgF,DewpointLowF,HumidityHigh,HumidityAvg,HumidityLow,PressureMaxIn,PressureMinIn,WindSpeedMaxMPH,WindSpeedAvgMPH,GustSpeedMaxMPH,PrecipitationSumIn
2013-1-1,37,35,28,36,33,22,98,91,75,30.03,29.82,17,6,17,0.13
2013-1-2,35,28,23,22,18,15,80,68,47,30.12,30.00,9,3,9,0.00
2013-1-3,41,29,20,25,20,16,87,70,46,30.21,30.03,12,3,12,0.00
2013-1-4,44,31,23,31,22,19,92,71,46,30.27,30.15,13,3,13,0.00
2013-1-5,46,36,26,36,30,21,92,79,58,30.18,30.03,12,4,12,0.00
2013-1-6,46,36,27,36,27,20,98,72,41,30.18,29.97,18,4,18,0.00
2013-1-7,44,31,23,29,23,18,90,73,48,30.24,30.00,10,3,10,0.00
2013-1-8,54,40,28,41,33,24,90,76,55,30.06,29.94,12,3,12,0.00
2013-1-9,56,49,46,48,44,40,98,82,67,30.18,30.00,13,3,13,0.25
2013-1-10,64,56,47,64,56,47,98,98,96,30.12,29.68,28,6,28,0.49
2013-1-11,63,56,49,58,52,49,98,88,62,29.79,29.68,22,8,22,0.00
2013-1-12,67,62,47,67,61,46,98,98,88,29.74,29.47,30,7,30,1.46
2013-1-13,46,36,27,46,33,20,98,90,73,30.12,29.56,20,9,20,0.95
2013-1-14,31,26,23,21,16,12,78,63,50,30.24,30.09,21,8,21,0.00
2013-1-15,31,27,24,26,20,16,90,75,57,30.12,29.88,23,8,23,0.00
2013-1-16,39,32,25,21,18,14,70,57,39,29.97,29.88,12,4,12,0.00
2013-1-17,49,36,25,30,22,16,78,58,48,30.27,29.91,22,6,22,0.08
2013-1-18,47,35,24,32,27,18,80,71,55,30.33,30.09,17,5,17,0.00
2013-1-19,56,44,32,38,32,26,87,66,48,30.09,29.88,22,7,22,0.00
2013-1-20,49,42,34,32,27,16,70,55,36,30.09,29.94,12,4,12,0.00
2013-1-21,38,32,27,17,13,9,57,46,33,30.18,30.00,17,5,17,0.00
2013-1-22,33,28,24,12,8,4,55,44,35,30.24,30.12,10,3,10,0.00
2013-1-23,50,34,21,30,22,11,82,63,43,30.15,29.94,16,4,16,0.00
2013-1-24,38,33,29,34,16,10,87,49,41,30.27,30.00,17,5,17,0.00
2013-1-25,46,37,32,30,26,16,79,64,47,30.03,29.88,14,4,14,0.05
2013-1-26,50,42,32,31,27,22,82,58,38,30.12,30.03,9,3,9,0.00
2013-1-27,57,48,40,53,39,28,94,71,59,30.06,29.85,14,4,14,0.00
2013-1-28,66,61,55,62,58,53,98,91,82,29.88,29.79,18,9,18,0.00
2013-1-29,72,64,54,62,59,51,98,84,59,29.79,29.26,31,12,31,1.32
2013-1-30,54,50,33,54,44,17,98,81,46,29.82,29.29,30,9,30,0.13
2013-1-31,52,36,26,30,21,3,75,54,35,30.15,29.79,31,8,31,0.00
2013-2-1,32,25,17,14,6,-2,63,44,36,30.33,30.09,19,5,19,0.00
2013-2-2,50,34,24,28,21,14,73,58,41,30.09,29.91,15,4,15,0.00
2013-2-3,53,44,35,28,22,13,58,43,23,29.97,29.85,29,6,29,0.00
2013-2-4,46,42,35,41,32,20,94,71,48,29.85,29.68,18,5,18,0.08
2013-2-5,56,43,36,46,40,35,98,89,65,29.85,29.71,13,3,13,0.00
2013-2-6,55,45,36,42,35,30,98,69,46,30.03,29.82,10,3,10,0.00
2013-2-7,62,53,45,56,46,33,98,76,58,29.85,29.68,17,4,17,0.13
2013-2-8,53,44,34,51,33,26,91,65,49,30.12,29.74,26,7,26,0.00
2013-2-9,46,39,33,33,29,27,84,68,52,30.12,29.88,12,4,12,0.00
2013-2-10,62,56,51,58,53,31,98,90,45,29.71,29.50,37,11,37,0.29
2013-2-11,56,46,37,32,28,24,71,50,35,29.97,29.71,18,5,18,0.00
2013-2-12,49,41,32,38,32,27,86,71,52,29.94,29.65,13,4,13,0.08
2013-2-13,50,41,37,43,38,35,97,88,60,29.79,29.65,20,9,20,0.16
2013-2-14,60,48,36,42,36,28,97,67,39,29.82,29.74,17,5,17,0.00
2013-2-15,50,46,42,29,26,20,57,45,31,30.00,29.82,17,6,17,0.00
2013-2-16,40,35,31,18,11,6,52,37,29,30.03,30.00,14,4,14,0.00
2013-2-17,54,42,33,32,26,18,66,54,38,30.03,29.79,20,7,20,0.00
2013-2-18,54,48,42,52,42,31,95,79,63,29.79,29.50,33,11,33,0.54
2013-2-19,48,39,31,35,19,11,71,45,27,30.06,29.76,19,6,20,0.00
2013-2-20,35,31,28,17,12,8,54,44,35,30.18,30.00,9,4,9,0.00
2013-2-21,33,32,30,33,28,17,98,85,55,30.00,29.59,14,3,14,0.00
2013-2-22,45,37,32,42,34,27,98,88,65,29.88,29.65,17,4,17,0.09
2013-2-23,41,32,27,27,24,21,80,72,53,29.88,29.79,12,4,12,0.00
2013-2-25,48,46,45,47,46,45,98,98,98,29.20,29.14,10,4,10,0.34
2013-2-26,51,44,39,50,40,30,98,87,69,29.59,29.12,26,9,26,0.12
2013-2-27,45,40,36,34,28,23,74,62,50,29.76,29.59,20,7,20,0.00
2013-2-28,45,39,36,26,24,21,62,54,44,29.91,29.76,17,6,17,0.00
2013-3-1,41,36,32,26,24,20,75,61,46,29.97,29.88,18,7,18,0.00
2013-3-2,36,34,30,26,18,15,78,54,43,30.03,29.94,21,10,21,0.00
2013-3-3,38,37,36,26,25,25,66,62,59,29.85,29.82,9,4,9,0.00
2013-3-4,57,48,36,45,35,24,68,60,48,29.82,29.50,23,6,23,0.00
2013-3-5,54,45,36,47,31,15,97,61,29,29.97,29.53,34,10,34,0.25
2013-3-6,47,38,32,24,20,16,73,48,38,30.15,29.97,22,6,22,0.00
2013-3-7,50,39,30,30,27,24,79,64,43,30.21,30.06,12,3,12,0.00
2013-3-8,57,44,32,34,30,27,81,58,35,30.18,29.94,13,3,13,0.00
2013-3-9,70,57,46,38,34,28,63,44,24,29.94,29.68,29,7,29,0.00
2013-3-10,62,57,52,58,51,36,98,81,48,29.68,29.53,33,11,33,0.54
2013-3-11,36,36,36,24,24,24,62,62,62,29.79,29.76,1,1,0,0.00
2013-3-12,57,50,46,27,24,22,43,36,27,30.00,29.88,15,5,15,0.00
2013-3-13,51,42,32,23,19,13,56,41,26,30.21,30.00,21,6,21,0.00
2013-3-14,60,44,29,36,27,17,72,52,34,30.21,29.91,22,6,22,0.00
2013-3-15,76,60,43,47,42,34,75,54,33,29.91,29.62,25,7,25,0.00
2013-3-16,77,64,49,52,45,37,67,51,39,29.71,29.62,21,8,21,0.00
2013-3-17,49,44,40,46,40,35,98,86,67,29.79,29.50,18,5,18,0.04
2013-3-18,58,48,41,50,41,30,98,78,51,29.82,29.50,20,6,20,0.04
2013-3-19,57,45,35,31,24,15,79,49,25,30.00,29.82,14,5,14,0.00
2013-3-21,47,36,27,29,15,7,84,46,27,29.91,29.76,12,3,12,0.00
2013-3-22,43,39,33,34,32,27,98,77,56,29.79,29.71,9,3,9,0.58
2013-3-23,52,45,41,45,37,30,95,73,59,29.76,29.50,12,4,12,0.09
2013-3-24,50,43,35,48,36,21,98,76,50,29.74,29.35,35,8,35,0.16
2013-3-25,42,36,32,25,20,16,68,51,39,30.03,29.74,27,10,27,0.00
2013-3-26,49,36,30,25,22,18,78,58,31,30.15,30.03,16,6,16,0.00
2013-3-27,58,43,29,31,26,18,72,53,30,30.21,30.06,19,4,19,0.00
2013-3-28,69,52,38,38,33,27,75,51,24,30.12,29.97,17,4,17,0.00
2013-3-29,63,53,46,53,43,35,92,71,49,30.03,29.94,14,4,14,0.13
2013-3-30,56,50,42,55,48,41,98,96,90,29.97,29.74,11,2,11,0.12
2013-3-31,67,56,48,56,51,44,98,85,53,29.76,29.65,15,3,15,0.16
2013-4-1,63,53,47,49,39,30,93,59,35,29.94,29.71,14,5,14,0.00
2013-4-2,47,43,42,30,25,21,53,47,42,30.09,29.94,15,5,15,0.00
2013-4-3,53,46,38,26,22,19,54,40,27,30.09,29.94,13,5,13,0.00
2013-4-4,54,47,43,42,32,21,93,57,38,29.94,29.79,12,4,12,0.00
2013-4-5,72,47,33,42,34,25,93,67,23,29.94,29.85,16,3,16,0.00
2013-4-6,75,58,41,45,40,35,82,55,25,29.88,29.68,29,7,29,0.00
2013-4-7,75,64,57,56,51,44,78,63,49,29.79,29.68,22,8,22,0.00
2013-4-8,77,66,58,60,55,52,83,68,44,29.74,29.65,30,7,30,0.00
2013-4-9,85,67,61,65,58,54,90,75,41,29.76,29.65,33,7,33,0.00
2013-4-10,85,73,65,68,63,57,96,74,47,29.71,29.44,32,10,32,0.80
2013-4-11,66,50,42,65,42,33,97,78,47,29.59,29.47,22,6,22,0.12
2013-4-12,68,51,35,41,34,26,88,57,24,29.79,29.59,19,6,19,0.00
2013-4-13,70,54,38,41,36,29,77,53,32,29.88,29.71,14,4,14,0.00
2013-4-14,76,61,46,55,48,40,84,64,42,29.71,29.50,31,8,31,0.00
2013-4-15,81,68,57,62,57,50,88,71,44,29.71,29.59,26,8,26,0.00
2013-4-16,90,75,63,71,65,59,95,74,42,29.82,29.68,31,7,31,0.00
2013-4-17,87,73,63,72,65,60,91,77,43,29.85,29.59,28,6,28,0.00
2013-4-18,80,66,44,66,58,34,96,77,55,29.65,29.44,39,13,39,2.07
2013-4-19,60,48,40,34,27,21,69,46,25,29.91,29.65,22,7,22,0.00
2013-4-20,69,52,35,43,34,26,82,54,26,30.06,29.91,14,3,14,0.00
2013-4-21,68,56,46,38,35,28,71,47,24,30.15,30.00,14,3,14,0.00
2013-4-22,77,49,43,46,37,34,74,63,26,30.03,29.79,21,3,21,0.00
2013-4-23,78,66,50,61,53,44,92,66,41,29.82,29.65,25,7,25,0.00
2013-4-24,61,50,41,44,37,29,92,64,33,30.06,29.74,22,7,22,0.13
2013-4-25,71,53,35,42,33,26,88,53,23,30.18,30.06,16,3,16,0.00
2013-4-26,60,52,48,51,46,39,98,79,53,30.18,30.00,13,3,13,0.41
2013-4-27,62,57,51,61,56,50,98,97,92,30.03,29.71,15,4,15,0.50
2013-4-28,70,61,52,56,53,48,98,77,48,29.80,29.71,14,4,14,0.00
2013-4-29,79,63,46,60,53,0,98,73,45,29.79,29.65,20,5,20,0.00
2013-4-30,83,69,56,59,54,46,89,62,29,29.76,29.68,17,6,17,0.00
2013-5-1,84,70,58,62,57,49,86,65,40,29.85,29.74,20,4,20,0.00
2013-5-2,76,65,58,62,58,54,95,80,50,29.91,29.79,10,3,10,1.04
2013-5-3,58,44,37,57,44,36,98,97,94,29.79,29.68,20,6,20,2.07
2013-5-4,58,41,34,46,38,33,98,91,51,29.74,29.68,16,3,16,0.04
2013-5-5,59,52,46,52,45,38,94,79,48,29.74,29.68,18,6,18,0.04
2013-5-6,70,60,53,56,53,49,98,77,48,29.76,29.65,17,5,17,0.00
2013-5-7,77,65,55,58,53,49,90,67,39,29.82,29.74,10,3,10,0.00
2013-5-8,84,69,55,62,55,51,90,64,37,29.85,29.76,13,3,13,0.00
2013-5-9,64,63,63,56,56,55,77,75,74,29.79,29.79,4,2,4,0.00
2013-5-11,77,66,57,55,47,27,85,53,24,29.94,29.76,18,6,18,0.00
2013-5-12,68,58,47,36,30,22,62,36,23,30.03,29.91,15,5,15,0.00
2013-5-13,77,63,49,49,41,30,70,47,25,30.03,29.88,16,3,16,0.00
2013-5-14,87,74,59,56,52,48,72,49,32,29.88,29.74,18,7,18,0.00
2013-5-15,85,73,64,59,50,46,58,45,31,29.85,29.71,20,6,20,0.00
2013-5-16,81,72,66,61,56,51,76,60,41,29.76,29.68,17,5,17,0.00
2013-5-17,78,70,65,70,64,58,93,81,66,29.74,29.68,10,3,10,0.12
2013-5-18,89,75,62,71,66,60,98,77,48,29.79,29.68,14,3,14,0.00
2013-5-19,90,80,71,72,66,59,95,68,37,29.74,29.62,32,7,32,0.00
2013-5-20,74,72,71,68,67,65,89,83,75,29.68,29.65,17,8,17,0.00
2013-5-21,81,68,64,73,65,59,98,90,61,29.74,29.59,17,5,17,1.99
2013-5-26,86,78,67,58,51,46,58,40,29,29.91,29.82,18,5,18,0.00
2013-5-27,70,66,63,63,54,52,82,66,58,29.85,29.82,10,2,10,0.00
2013-5-28,88,82,70,65,58,53,77,44,37,29.82,29.71,20,8,20,0.00
2013-5-29,88,78,67,66,60,55,75,56,35,29.79,29.68,30,7,30,0.00
2013-5-30,88,78,72,70,66,61,90,69,42,29.76,29.65,27,10,27,0.05
2013-5-31,84,75,66,77,70,65,98,87,68,29.76,29.56,30,8,30,2.66
2013-6-1,76,70,66,73,69,64,98,95,83,29.74,29.62,20,5,20,1.16
2013-6-2,78,70,64,66,60,52,98,74,46,29.79,29.71,17,5,17,0.00
2013-6-3,78,69,62,59,56,50,84,65,42,29.85,29.74,10,4,10,0.00
2013-6-4,83,72,60,62,57,52,88,62,39,29.82,29.74,10,3,10,0.00
2013-6-5,89,77,67,68,63,58,87,64,38,29.76,29.59,24,3,24,0.25
2013-6-6,84,74,67,67,60,55,93,65,41,29.65,29.56,14,5,14,0.00
2013-6-7,81,73,64,58,51,44,65,47,29,29.71,29.62,15,6,15,0.00
2013-6-8,87,73,60,60,54,49,81,55,31,29.76,29.68,14,3,14,0.00
2013-6-9,86,72,63,69,63,55,91,74,50,29.76,29.62,18,4,18,0.16
2013-6-10,91,77,64,70,64,59,95,67,34,29.71,29.65,19,4,19,0.00
2013-6-11,96,82,68,72,67,62,89,63,36,29.79,29.68,13,4,13,0.00
2013-6-12,95,83,75,72,67,60,82,60,38,29.82,29.65,23,6,23,0.00
2013-6-13,89,82,71,71,63,55,74,53,34,29.76,29.68,18,6,18,0.00
2013-6-14,90,78,67,65,54,44,83,50,22,29.85,29.74,12,4,12,0.00
2013-6-15,92,78,63,65,59,53,81,56,28,29.85,29.74,16,3,16,0.00
2013-6-16,94,78,71,70,63,60,80,63,34,29.80,29.71,12,2,12,0.00
2013-6-17,89,76,68,75,68,61,93,79,45,29.76,29.62,19,4,19,0.92
2013-6-18,88,76,67,66,62,57,92,65,37,29.79,29.65,13,4,13,0.00
2013-6-19,92,80,70,71,65,60,84,63,38,29.82,29.74,11,3,11,0.00
2013-6-20,80,72,68,66,64,62,87,77,58,29.88,29.82,3,1,3,0.00
2013-6-21,95,87,69,72,64,58,86,49,32,29.94,29.82,20,7,20,0.00
2013-6-22,96,79,71,71,66,56,85,68,31,29.91,29.79,18,4,18,0.00
2013-6-23,95,82,69,70,63,58,82,56,32,29.88,29.76,17,5,17,0.00
2013-6-24,97,83,71,72,65,56,84,57,32,29.88,29.79,18,4,18,0.00
2013-6-25,97,85,75,72,66,60,80,56,33,29.85,29.68,16,6,16,0.00
2013-6-26,96,85,74,72,66,60,80,55,32,29.74,29.62,24,7,24,0.00
2013-6-27,101,86,76,73,67,59,72,55,33,29.71,29.62,15,5,15,0.00
2013-6-28,92,82,71,72,63,53,89,57,29,29.68,29.53,29,5,29,0.21
2013-6-29,90,78,71,60,54,42,64,47,20,29.59,29.50,18,6,18,0.00
2013-6-30,84,72,65,62,58,52,80,63,36,29.68,29.53,18,6,18,0.12
2013-7-1,77,69,65,63,58,52,88,69,43,29.74,29.62,14,6,14,0.00
2013-7-2,84,72,63,57,54,52,73,55,36,29.85,29.71,17,5,17,0.00
2013-7-3,84,71,59,58,53,44,80,58,26,29.91,29.79,14,4,14,0.00
2013-7-4,91,76,61,63,55,46,80,52,23,29.85,29.74,12,4,12,0.00
2013-7-5,90,79,68,69,62,55,83,59,38,29.85,29.76,14,4,14,0.00
2013-7-6,93,79,68,69,62,57,79,59,32,29.85,29.76,18,4,18,0.00
2013-7-7,96,81,68,72,64,59,84,59,32,29.88,29.79,14,4,14,0.00
2013-7-8,99,83,70,74,66,59,85,61,28,29.91,29.82,14,4,14,0.04
2013-7-9,99,86,73,74,67,63,86,58,33,29.91,29.76,15,5,15,0.00
2013-7-10,98,87,78,70,65,58,68,50,29,29.79,29.68,10,4,10,0.00
2013-7-11,93,80,73,71,60,50,76,54,27,29.79,29.71,18,3,18,0.00
2013-7-12,88,77,67,55,49,40,59,40,20,29.85,29.76,14,4,14,0.00
2013-7-13,88,76,63,59,51,44,70,44,23,29.82,29.76,13,4,13,0.00
2013-7-14,94,79,66,66,59,52,72,53,29,29.88,29.79,17,5,17,0.00
2013-7-19,91,84,76,67,64,61,73,53,39,29.76,29.74,14,4,14,0.00
2013-7-20,97,83,72,73,65,57,86,58,35,29.76,29.62,17,4,17,0.12
2013-7-21,85,78,71,79,74,58,95,88,46,29.76,29.65,9,3,9,0.29
2013-7-22,92,82,71,79,70,64,98,70,43,29.71,29.62,14,4,14,22.61
2013-7-23,88,79,69,80,71,64,98,77,51,29.79,29.62,25,5,25,0.80
2013-7-24,86,77,70,73,66,60,91,72,49,29.79,29.65,15,4,15,0.00
2013-7-25,82,72,64,60,54,49,76,55,34,29.88,29.79,14,4,14,0.00
2013-7-26,86,72,62,65,60,56,81,68,42,29.88,29.76,14,3,14,0.00
2013-7-27,86,76,69,65,60,50,77,60,33,29.79,29.71,14,5,14,0.00
2013-7-28,81,72,64,59,54,49,72,56,35,29.85,29.76,10,3,10,0.00
2013-7-29,87,75,66,65,59,56,76,60,36,29.94,29.85,13,3,13,0.00
2013-7-30,80,74,71,79,69,61,98,85,69,29.91,29.79,14,4,14,0.99
2013-7-31,91,81,74,80,74,71,96,82,55,29.79,29.74,11,3,11,0.00
2013-8-1,86,78,71,72,66,60,88,68,44,29.88,29.76,10,3,10,0.00
2013-8-2,90,78,67,73,66,62,89,69,45,29.82,29.74,14,4,14,0.00
2013-8-3,85,77,73,74,69,66,91,78,57,29.88,29.71,10,3,10,0.17
2013-8-4,88,78,71,71,67,63,89,72,48,29.91,29.82,9,3,9,0.00
2013-8-5,80,74,70,76,70,65,93,86,78,29.85,29.68,8,3,9,0.20
2013-8-6,82,76,71,80,74,70,98,94,87,29.82,29.65,13,3,13,1.04
2013-8-7,86,79,74,76,73,71,98,84,67,29.76,29.65,14,3,14,0.00
2013-8-8,90,80,74,80,74,71,96,83,63,29.76,29.65,14,3,14,0.08
2013-8-9,88,79,71,76,71,67,94,78,53,29.82,29.68,22,3,22,0.38
2013-8-10,80,76,70,78,73,67,97,90,79,29.91,29.79,14,2,14,1.62
2013-8-11,75,75,75,72,72,72,89,89,89,29.91,29.82,12,2,12,0.24
2013-8-12,80,76,75,72,69,58,89,82,47,29.85,29.71,14,4,14,0.00
2013-8-13,84,79,74,68,63,58,66,59,47,29.82,29.74,12,3,12,0.00
2013-8-14,74,71,64,63,49,42,82,48,32,29.91,29.79,17,5,17,0.00
2013-8-15,76,67,59,56,50,44,75,55,33,29.91,29.79,11,4,11,0.00
2013-8-16,78,70,62,59,56,52,77,61,43,29.88,29.79,13,5,13,0.00
2013-8-17,80,72,66,65,62,58,81,70,53,29.91,29.82,13,4,13,0.00
2013-8-18,79,72,68,69,65,61,88,77,57,29.91,29.82,11,3,11,0.00
2013-8-19,83,74,66,71,63,56,89,69,41,29.91,29.79,12,3,12,0.00
2013-8-20,86,77,68,72,64,59,87,67,42,29.91,29.79,11,3,11,0.00
2013-8-21,88,79,70,76,66,59,86,67,39,29.94,29.82,10,2,10,0.00
2013-8-22,90,80,73,77,68,62,87,69,41,29.91,29.79,10,3,10,0.00
2013-8-23,91,80,73,69,66,60,84,64,37,29.85,29.76,9,3,9,0.00
2013-8-24,88,76,74,67,66,64,79,72,44,29.94,29.82,10,3,10,0.00
2013-8-25,90,80,77,76,69,66,80,68,49,30.03,29.94,16,4,16,0.00
2013-8-26,89,79,73,74,68,62,86,71,43,30.03,29.91,14,3,14,0.00
2013-8-27,90,79,71,69,65,60,85,64,38,29.91,29.82,11,3,11,0.00
2013-8-28,90,80,72,70,64,58,79,60,35,29.88,29.79,10,3,10,0.00
2013-8-29,92,81,76,67,64,56,69,56,31,29.85,29.76,10,4,10,0.00
2013-8-30,92,84,75,73,66,61,77,57,36,29.79,29.68,14,3,14,0.00
2013-8-31,94,85,76,72,66,63,74,54,37,29.71,29.59,12,4,12,0.00
2013-9-1,87,81,77,73,68,64,79,66,49,29.71,29.59,17,4,17,0.00
2013-9-2,88,80,75,73,66,29,84,65,39,29.74,29.62,14,4,14,0.00
2013-9-3,84,76,67,61,53,38,71,48,21,29.85,29.71,15,4,15,0.00
2013-9-4,84,73,64,65,55,49,75,55,30,29.94,29.82,10,3,10,0.00
2013-9-5,85,74,64,64,56,49,80,57,30,29.97,29.88,10,3,10,0.00
2013-9-6,87,77,68,67,60,54,78,58,33,29.94,29.82,9,3,9,0.00
2013-9-7,90,78,68,70,60,53,79,58,30,29.85,29.74,12,3,12,0.00
2013-9-8,93,81,70,70,64,55,76,57,28,29.76,29.68,12,3,12,0.00
2013-9-9,95,83,74,73,66,57,79,59,29,29.79,29.71,14,3,14,0.00
2013-9-10,94,83,74,73,63,54,79,54,27,29.91,29.79,15,3,15,0.00
2013-9-11,92,82,75,73,66,60,77,60,35,29.94,29.82,11,3,11,0.00
2013-9-12,91,80,74,72,66,59,79,64,36,29.85,29.74,13,3,13,0.00
2013-9-13,79,73,65,65,46,38,69,40,25,29.85,29.76,15,5,15,0.00
2013-9-14,75,66,58,51,41,33,69,44,22,29.91,29.79,14,3,14,0.00
2013-9-15,82,60,53,58,44,39,73,59,22,29.88,29.82,11,2,11,0.00
2013-9-16,81,72,63,62,56,51,72,59,41,29.97,29.85,12,4,12,0.00
2013-9-17,85,75,68,65,60,53,77,60,35,29.97,29.82,12,3,12,0.00
2013-9-18,88,78,70,70,63,57,77,61,35,29.88,29.76,15,4,15,0.00
2013-9-19,90,80,72,71,64,56,77,60,33,29.85,29.71,16,5,16,0.00
2013-9-20,76,75,74,68,66,62,78,74,63,29.76,29.62,9,4,9,0.54
2013-9-21,75,71,62,67,54,41,78,56,31,29.74,29.65,15,6,15,0.04
2013-9-22,75,65,56,51,45,38,72,50,27,29.76,29.68,12,4,12,0.00
2013-9-23,78,67,55,57,50,45,77,57,33,29.76,29.68,14,3,14,0.00
2013-9-24,84,73,64,69,62,54,77,69,48,29.71,29.59,12,4,12,0.00
2013-9-25,80,75,69,67,62,53,77,65,40,29.65,29.56,14,4,14,0.00
2013-9-26,84,73,68,64,59,51,77,65,33,29.76,29.65,12,3,12,0.00
2013-9-27,84,74,69,64,57,51,70,59,33,29.85,29.76,14,3,14,0.00
2013-9-28,84,73,64,63,56,51,80,58,34,29.88,29.76,20,5,20,0.00
2013-9-29,72,69,69,61,60,55,76,72,57,29.82,29.74,14,5,14,0.17
2013-9-30,81,77,76,76,75,72,98,93,81,29.76,29.71,12,4,12,0.00
2013-10-1,76,76,76,76,76,76,98,98,98,29.82,29.74,11,4,11,0.08
2013-10-2,76,76,76,76,76,76,98,98,98,29.88,29.79,12,2,12,0.08
2013-10-3,76,76,76,76,76,76,98,98,98,29.82,29.71,16,4,16,0.05
2013-10-4,76,76,76,76,76,76,98,98,98,29.82,29.74,20,5,20,0.00
2013-10-5,76,76,76,76,76,76,98,98,98,29.79,29.65,17,6,17,0.46
2013-10-6,76,74,49,76,71,36,98,92,34,29.79,29.68,11,8,11,0.28
2013-10-7,52,38,34,40,35,32,97,89,63,29.91,29.74,14,4,14,0.00
2013-10-8,34,34,34,34,34,34,97,97,97,29.97,29.85,14,3,14,0.00
2013-10-9,34,34,34,34,34,34,97,97,97,29.88,29.85,4,2,4,0.00
2013-10-13,84,82,82,57,44,43,40,26,25,30.06,30.03,6,4,6,0.00
2013-10-14,82,69,51,58,48,37,64,49,25,30.03,29.82,8,3,8,0.00
2013-10-15,71,71,71,58,58,58,63,63,63,29.82,29.68,11,3,11,0.33
2013-10-16,71,71,71,58,58,58,63,63,63,29.85,29.74,10,3,10,0.21
2013-10-17,71,71,71,58,58,58,63,63,63,29.82,29.76,12,3,12,0.08
2013-10-18,78,70,60,61,57,51,83,64,50,29.85,29.74,12,2,12,0.00
2013-10-19,60,52,47,55,47,38,92,83,47,29.88,29.71,14,5,14,0.13
2013-10-20,66,58,43,49,45,39,90,63,44,29.85,29.76,18,6,18,0.00
2013-10-21,70,56,46,54,48,40,90,76,49,29.82,29.76,17,4,17,0.04
2013-10-22,64,58,53,50,44,41,87,61,45,29.85,29.68,15,3,15,0.52
2013-10-23,56,50,45,43,38,35,71,62,53,29.94,29.76,14,5,14,0.00
2013-10-25,50,43,39,32,31,29,72,63,46,30.15,30.09,3,1,3,0.00
2013-10-26,65,51,39,48,39,30,80,65,48,30.09,29.85,17,4,17,0.00
2013-10-27,60,54,51,50,40,34,83,61,50,29.88,29.82,14,4,14,0.00
2013-10-29,69,67,65,65,64,64,95,92,86,29.88,29.85,9,4,9,0.00
2013-10-30,73,68,63,67,64,62,95,90,74,29.91,29.74,20,6,20,0.00
2013-10-31,71,67,59,68,64,51,98,91,65,29.74,29.29,29,9,29,0.67
2013-11-1,59,58,56,52,51,50,82,79,76,29.59,29.53,10,2,10,0.00
2013-11-2,58,51,47,39,38,36,70,60,46,29.97,29.88,12,3,12,0.00
2013-11-3,58,49,40,43,38,33,83,68,47,30.09,29.94,13,3,13,0.00
2013-11-4,59,53,46,51,46,39,86,77,61,30.03,29.94,17,3,17,0.00
2013-11-5,65,59,53,55,52,49,88,77,64,30.06,29.88,17,5,17,0.00
2013-11-6,61,56,46,61,51,36,98,86,68,30.06,29.79,26,8,26,0.24
2013-11-7,54,46,40,38,35,33,79,67,48,30.21,30.06,13,5,13,0.00
2013-11-8,58,47,41,42,37,34,78,69,47,30.18,29.97,12,3,12,0.00
2013-11-9,61,51,42,49,44,36,86,75,52,30.03,29.94,16,3,16,0.00
2013-11-10,60,52,45,48,39,34,89,63,43,30.18,30.03,17,3,17,0.00
2013-11-11,64,47,40,43,37,32,79,68,46,30.09,29.97,10,3,10,0.00
2013-11-13,44,35,28,25,20,15,65,55,45,30.50,30.21,11,3,11,0.00
2013-11-14,54,41,28,30,25,19,74,55,37,30.21,29.91,19,5,19,0.00
2013-11-21,58,56,56,58,55,54,98,97,95,29.94,29.88,6,1,6,0.25
2013-11-22,59,50,40,58,47,35,98,89,77,30.21,29.94,22,8,22,0.37
2013-11-23,44,38,27,36,24,9,84,58,37,30.41,30.21,22,10,22,0.00
2013-11-24,32,27,22,16,12,9,60,53,47,30.47,30.21,22,7,22,0.00
2013-11-25,35,33,32,30,23,16,88,66,52,30.21,29.94,8,2,8,0.13
2013-11-28,44,38,30,27,25,22,75,59,48,30.24,30.12,17,5,17,0.13
2013-11-29,49,33,26,35,26,21,87,75,55,30.33,30.18,9,2,9,0.00
2013-11-30,54,40,27,38,31,23,92,72,47,30.18,29.97,19,4,19,0.00
2013-12-1,57,50,38,47,42,32,85,74,63,29.97,29.71,10,2,10,0.00
2013-12-2,61,51,43,54,47,40,96,87,75,29.71,29.50,9,2,9,0.00
2013-12-3,61,54,48,58,53,47,98,96,86,29.56,29.44,17,2,17,0.00
2013-12-4,72,63,56,63,60,55,98,90,70,29.59,29.44,31,6,31,0.00
2013-12-5,64,42,32,61,35,25,95,76,55,29.97,29.59,23,8,23,0.29
2013-12-6,32,28,25,31,25,22,94,91,88,30.03,29.91,1,1,0,0.08
2013-12-7,24,21,18,14,11,8,77,65,58,30.41,30.15,14,2,14,0.00
2013-12-8,32,27,20,29,24,14,93,88,77,30.15,29.82,14,3,14,0.00
2013-12-9,35,32,29,29,26,21,91,79,65,30.09,29.94,11,4,11,0.00
2013-12-10,35,29,24,24,21,19,83,71,62,30.18,30.03,9,4,9,0.00
2013-12-11,39,28,22,32,22,18,90,79,54,30.24,30.12,17,3,17,0.00
2013-12-12,27,26,26,19,18,18,74,71,70,30.18,30.15,5,2,5,0.00
2013-12-13,40,33,25,34,26,18,94,78,61,30.15,29.71,14,3,14,0.79
2013-12-14,40,36,34,38,33,27,98,88,76,29.94,29.59,17,4,17,0.70
2013-12-15,40,35,32,32,28,25,89,76,66,30.06,29.94,14,5,14,0.00
2013-12-16,54,44,34,39,35,31,88,73,53,29.94,29.82,12,6,13,0.04
2013-12-17,53,43,34,38,32,27,88,67,48,30.09,29.88,20,3,20,0.00
2013-12-18,53,42,28,41,33,23,87,73,51,30.12,29.85,21,6,21,0.00
2013-12-19,58,51,42,55,46,38,90,84,78,29.85,29.68,24,8,24,0.00
2013-12-20,67,62,58,64,60,55,98,93,89,29.71,29.56,18,8,18,0.33
2013-12-21,66,58,48,65,57,47,98,97,89,29.56,29.41,31,9,31,1.95
2013-12-22,43,41,35,36,32,25,76,69,65,30.03,29.76,18,7,18,0.00
2013-12-23,36,33,30,26,21,17,72,61,51,30.30,30.03,15,6,15,0.00
2013-12-24,30,24,21,17,13,10,74,61,52,30.41,30.18,12,4,12,0.00
2013-12-25,43,32,22,30,23,15,84,70,56,30.18,30.06,15,4,15,0.00
2013-12-26,44,32,26,32,26,22,89,80,57,30.24,30.12,12,2,12,0.00
2013-12-27,51,41,27,40,32,24,90,72,52,30.24,30.12,17,4,17,0.00
2013-12-28,46,32,30,40,29,27,88,85,73,30.12,29.91,9,1,9,0.00
2013-12-29,40,34,29,29,21,16,66,59,56,30.03,29.88,21,10,21,0.00
2013-12-30,33,27,23,18,15,14,73,60,53,30.15,30.03,15,4,15,0.00
2013-12-31,42,30,22,28,23,15,85,73,55,30.24,30.06,14,3,14,0.00
2014-1-1,47,39,28,39,32,24,92,77,62,30.06,29.74,14,5,14,0.00
2014-1-2,46,32,25,40,20,8,87,63,44,30.18,29.71,24,9,24,0.00